This is the latest recevied weather packets stored in our database for station/object W9KHP-1. If no packets are shown the sender has not sent any weather packets the latest 10 day(s).
| Time | Temp. | Humidity | Pressure | Rain* | Wind** | Luminosity | Snow |
|---|---|---|---|---|---|---|---|
| 1777706832 | 7.78° C | 84% | 1019.3 hPa | 0 mm | - | 0 W/m² | - |
| 1777706529 | 7.22° C | 83% | 1019.4 hPa | 0 mm | - | 0 W/m² | - |
| 1777706227 | 7.22° C | 85% | 1019.3 hPa | 0 mm | - | 0 W/m² | - |
| 1777705924 | 7.22° C | 86% | 1019.2 hPa | 0 mm | - | 0 W/m² | - |
| 1777705623 | 7.22° C | 84% | 1019.2 hPa | 0 mm | - | 0 W/m² | - |
| 1777705320 | 7.22° C | 85% | 1019.3 hPa | 0 mm | - | 0 W/m² | - |
| 1777705019 | 7.78° C | 83% | 1019.3 hPa | 0 mm | - | 0 W/m² | - |
| 1777704715 | 7.78° C | 77% | 1019.4 hPa | 0 mm | - | 0 W/m² | - |
| 1777704414 | 7.78° C | 78% | 1018.9 hPa | 0 mm | - | 0 W/m² | - |
| 1777704111 | 7.22° C | 81% | 1019.1 hPa | 0 mm | - | 0 W/m² | - |
| 1777703809 | 7.22° C | 84% | 1019.1 hPa | 0 mm | - | 0 W/m² | - |
| 1777703506 | 7.22° C | 84% | 1019.1 hPa | 0 mm | - | 0 W/m² | - |
| 1777703203 | 7.22° C | 83% | 1019.2 hPa | 0 mm | - | 0 W/m² | - |
| 1777702901 | 7.78° C | 85% | 1019.5 hPa | 0 mm | - | 0 W/m² | - |
| 1777702599 | 7.78° C | 83% | 1019.3 hPa | 0 mm | - | 0 W/m² | - |
| 1777702296 | 7.78° C | 76% | 1019.4 hPa | 0 mm | - | 0 W/m² | - |
| 1777701996 | 7.78° C | 77% | 1019.6 hPa | 0 mm | - | 0 W/m² | - |
| 1777701693 | 7.22° C | 80% | 1019.3 hPa | 0 mm | - | 0 W/m² | - |
| 1777701391 | 7.78° C | 86% | 1019.4 hPa | 0 mm | - | 0 W/m² | - |
| 1777701089 | 7.78° C | 84% | 1019.3 hPa | 0 mm | - | 0 W/m² | - |
| 1777700788 | 8.33° C | 80% | 1019.6 hPa | 0 mm | - | 0 W/m² | - |
| 1777700485 | 8.33° C | 75% | 1019.6 hPa | 0 mm | - | 0 W/m² | - |
| 1777700182 | 8.33° C | 79% | 1019.5 hPa | 0 mm | - | 0 W/m² | - |
| 1777699879 | 8.89° C | 77% | 1019.6 hPa | 0 mm | - | 0 W/m² | - |
| 1777699578 | 8.33° C | 76% | 1019.7 hPa | 0 mm | - | 0 W/m² | - |
* Rain latest hour (hover to see other rain measurements)
** Current wind speed in m/s (hover to see current wind gust speed)